User: anonymous   Login
Location: Theydon Bois
(51.6750°N, 0.1050°E)
Time: 06:34:45
(UTC+00:00)
Language:

H-2A R/B - Orbit

View from above orbital plane
View from above orbital plane
View from above satellite
View from above satellite

Ground track
Ground track

The orbit data is extracted from the following two-line orbital elements,

1 36105U 09066B   18051.74283183 0.00000600  00000-0  32925-4 0    01
2 36105  97.3157  78.8692 0027660 202.5165 157.4833 15.13865601    08
Epoch (UTC): 20 February 2018 17:49:40
Eccentricity: 0.0027660
inclination: 97.3157°
perigee height: 505 km
apogee height: 543 km
right ascension of ascending node: 78.8692°
argument of perigee: 202.5165°
revolutions per day: 15.13865601
mean anomaly at epoch: 157.4833°
orbit number at epoch: 0

The dashed part of the orbit path shows where the satellite is in the earth's shadow,  

DLR